Milton, FL

5:31 PM CST on February 08, 2016 (GMT -0600)
Whiting Field Naval Air Station (South)

Weather History for KNDZ - April, 2013

Change the Weather History Date:

Friday, April 26, 2013

  Actual Average (KNSE) Record (KNSE)
Temperature  
Mean Temperature 68 °F -  
Max Temperature 82 °F 77 °F 88 °F (2015)
Min Temperature 54 °F 57 °F 51 °F (2001)
Cooling Degree Days 2    
Growing Degree Days 18 (Base 50)    
Moisture  
Dew Point 45 °F    
Average Humidity 45    
Maximum Humidity 72    
Minimum Humidity 29    
Precipitation  
Precipitation 0.00 in - - ()
Sea Level Pressure  
Sea Level Pressure 30.22 in    
Wind  
Wind Speed 7 mph (East)    
Max Wind Speed 13 mph    
Max Gust Speed -    
Visibility 10 miles    
Events      
Averages and records for this station are not official NWS values.
T = Trace of Precipitation, MM = Missing Value Source: NWS Daily Summary

Daily Weather History Graph

Daily Weather History Graph

Search for Another Location

Airport or City:

Trip Planner

Search our weather history database for the weather conditions in past years. The results will help you decide how hot, cold, wet, or windy it might be!

Date:

Astronomy

Apr. 26, 2013 Rise Set
Actual Time 6:08 AM CDT 7:23 PM CDT
Civil Twilight 5:43 AM CDT 7:48 PM CDT
Nautical Twilight 5:13 AM CDT 8:18 PM CDT
Astronomical Twilight 4:42 AM CDT 8:50 PM CDT
Moon 8:40 PM CDT (4/26) 6:39 AM CDT (4/26)
Length of Visible Light 14h 05m
Length of Day
13h 14m
Full, 99% of the Moon is Illuminated
Apr 26
Full
May 2
Last Quarter
May 9
New
May 17
First Quarter
May 24
Full

Hourly Weather History & Observations

Time (CDT) Temp. Dew Point Humidity Pressure Visibility Wind Dir Wind Speed Gust Speed Precip Events Conditions
12:56 AM 59.0 °F 39.0 °F 48% 30.22 in 10.0 mi NNE 6.9 mph - N/A   Clear
1:56 AM 59.0 °F 37.9 °F 46% 30.20 in 10.0 mi NE 9.2 mph - N/A   Clear
2:56 AM 57.9 °F 37.0 °F 46% 30.19 in 10.0 mi NE 9.2 mph - N/A   Clear
3:56 AM 55.9 °F 37.0 °F 49% 30.19 in 10.0 mi NE 6.9 mph - N/A   Clear
4:56 AM 54.0 °F 37.0 °F 53% 30.20 in 10.0 mi NE 6.9 mph - N/A   Clear
5:56 AM 54.0 °F 37.0 °F 53% 30.22 in 10.0 mi NE 6.9 mph - N/A   Clear
6:56 AM 55.9 °F 37.9 °F 51% 30.24 in 10.0 mi NE 6.9 mph - N/A   Clear
7:56 AM 60.1 °F 39.0 °F 46% 30.25 in 10.0 mi ENE 10.4 mph - N/A   Clear
8:56 AM 64.9 °F 39.0 °F 39% 30.26 in 10.0 mi East 12.7 mph - N/A   Clear
9:56 AM 70.0 °F 39.0 °F 32% 30.26 in 10.0 mi ENE 9.2 mph - N/A   Clear
10:56 AM 73.9 °F 41.0 °F 30% 30.27 in 10.0 mi Variable 4.6 mph - N/A   Clear
11:56 AM 77.0 °F 44.1 °F 31% 30.27 in 10.0 mi Variable 3.5 mph - N/A   Clear
12:17 PM 78.8 °F 44.6 °F 30% 30.30 in 10.0 mi Calm Calm - N/A   Partly Cloudy
12:56 PM 79.0 °F 46.9 °F 32% 30.25 in 10.0 mi Calm Calm - N/A   Clear
1:56 PM 81.0 °F 51.1 °F 35% 30.23 in 10.0 mi NE 4.6 mph - N/A   Clear
2:56 PM 81.0 °F 46.9 °F 30% 30.20 in 10.0 mi SSW 8.1 mph - N/A   Clear
3:56 PM 81.0 °F 46.0 °F 29% 30.19 in 10.0 mi South 10.4 mph - N/A   Clear
4:56 PM 79.0 °F 48.0 °F 34% 30.19 in 10.0 mi South 8.1 mph - N/A   Clear
5:56 PM 77.0 °F 51.1 °F 40% 30.19 in 10.0 mi South 9.2 mph - N/A   Clear
6:56 PM 72.0 °F 51.1 °F 48% 30.20 in 10.0 mi South 5.8 mph - N/A   Clear
7:56 PM 69.1 °F 51.1 °F 53% 30.19 in 10.0 mi SSW 3.5 mph - N/A   Clear
8:56 PM 66.9 °F 54.0 °F 63% 30.19 in 10.0 mi SSW 3.5 mph - N/A   Clear
9:56 PM 64.9 °F 54.0 °F 68% 30.19 in 10.0 mi Calm Calm - N/A   Clear
10:56 PM 63.0 °F 53.1 °F 70% 30.20 in 10.0 mi Calm Calm - N/A   Clear
11:56 PM 63.0 °F 54.0 °F 72% 30.20 in 10.0 mi ENE 3.5 mph - N/A   Clear